Weather in Maragheh

Iran     37°23′22″N   46°14′20″E
temp.,
°C
wind,
m/s
gust,
m/s
humid.,
%
clouds,
%
prec.,
mm/h
press.,
hPa
HPBL,
m
8 may, sat
sat801:30+10s117299 0.8 1016132
04:30+10e1173100 1.3 1016161
07:30+10sse117351 0.1 1017202
10:30+13ssw326367 0.3 10181188
13:30+13n116029 0.1 1017871
16:30+17wsw334459 0.2 10141744
19:30+16w33492 0.0 1014564
22:30+13ssw01611 0.0 1016115
9 may, sun
sun901:30+12e01645 0.0 101529
04:30+11ene11650 0.0 101515
07:30+12ne11640 0.0 101536
10:30+16sw22465 0.0 1014807
13:30+20sw44348 0.0 10111636
16:30+21wsw44255 0.0 10091745
19:30+20sw13320 0.0 1008626
22:30+16w25493 0.2 1010337
10 may, mon
mon1001:30+14nw115322 0.0 101061
04:30+15ese1244100 0.0 100955
07:30+14s15450 0.0 1010161
10:30+19ssw813300 0.0 10092242
13:30+21wsw1013240 0.0 10082677
16:30+21wsw913260 0.0 10082348
19:30+18sw712310 0.0 10091496
22:30+15wsw25400 0.0 1010260
11 may, tue
tue1101:30+15s410380 0.0 1010438
04:30+13sse24390 0.0 101090
07:30+13se144599 0.0 1011224
10:30+16ssw4937100 0.0 1012938
13:30+20sw61228100 0.0 10102978
16:30+21wsw7132590 0.0 10103090
19:30+19sw811301 0.0 10101417
22:30+15s38330 0.0 1013372
12 may, wed
wed1201:30+14se23400 0.0 101282
04:30+13e22480 0.0 101335
07:30+13e22490 0.0 101548
10:30+18ssw45270 0.0 10141098
13:30+20wsw6918100 0.0 10141991
16:30+21wsw5919100 0.0 10132771
19:30+19w4626100 0.0 1013846
22:30+16ssw003289 0.0 101418